Vorticity
6 8 9 13 23 47 16 10 20 15 8 10 19 12 9 11 -8 20 31 19 5 8 3 14 19 5 2 5 8 25 8 10 9 6 25 32 26 27 16 -6 16 11 11 14
8 9 15 30 33 19 13 17 6 -2 24 -12 18 5 11 11 18 22 2 21 14 3 7 15 13 12 -2 4 3 10 7 -7 10 20 22 34 8 16 7 6 5 12 6 15
8 14 24 23 10 7 14 15 13 15 -0 10 16 4 15 11 2 7 5 12 11 22 14 18 -2 -5 -1 -2 13 10 3 9 6 -7 -19 -14 4 2 22 19 6 15 16 25
14 19 29 16 9 10 13 13 -1 -3 -27 -13 3 3 42 15 1 -2 13 3 8 20 15 11 8 18 11 5 10 20 22 5 -4 13 19 11 13 5 -1 -0 6 10 17 10
18 17 16 11 12 10 15 12 10 12 27 12 14 -2 30 -1 6 26 -7 4 7 11 26 29 -11 2 10 19 7 -1 21 17 6 9 19 16 10 16 12 3 3 6 10 16
11 16 14 14 14 11 13 12 11 10 17 11 27 13 24 3 5 8 6 28 21 44 34 16 -0 12 15 6 6 8 19 8 4 11 8 3 30 28 13 12 9 19 6 0
6 12 11 10 10 11 14 10 12 13 10 13 -16 14 9 13 18 18 23 16 15 4 17 14 14 17 22 25 27 25 0 2 6 6 7 14 8 12 34 24 19 15 9 16
2 12 15 9 9 9 10 9 11 13 15 8 3 3 17 24 12 7 10 15 17 3 22 18 6 7 10 3 4 18 28 7 -4 6 13 -1 19 4 -1 9 23 23 19 14
6 7 23 13 8 11 6 14 13 13 14 -7 4 22 18 12 24 10 17 18 13 13 6 19 6 9 7 3 17 17 33 18 0 5 7 9 24 16 11 10 9 11 8 20
7 10 15 14 13 14 11 9 6 13 31 15 13 5 11 15 11 21 1 11 3 12 9 14 12 4 16 7 21 4 15 19 11 -2 9 12 29 9 9 6 27 12 10 10
11 6 13 7 12 12 9 11 9 14 16 10 6 10 15 9 8 9 9 25 -4 11 15 11 17 7 6 9 0 6 14 21 12 11 9 4 22 -2 9 30 13 14 19 14
11 7 12 7 11 12 13 14 18 10 14 3 9 12 11 -1 13 21 24 16 16 8 9 13 5 3 7 13 10 2 -4 17 11 17 17 11 3 7 21 -2 -1 -3 -1 -1
10 11 11 9 16 15 13 16 14 8 7 21 6 19 12 -4 20 8 10 13 32 -1 4 1 2 14 6 11 8 -0 15 15 10 14 13 -7 4 8 10 7 5 4 6 6
11 10 10 13 17 9 14 17 19 21 24 6 20 12 11 8 12 6 5 2 14 26 8 9 16 11 12 0 6 17 6 18 7 9 10 -7 16 19 8 13 16 14 11 6
10 7 12 15 10 9 17 11 18 14 25 14 6 5 -2 -4 4 23 19 20 15 5 13 14 11 12 22 -7 19 15 2 1 13 12 17 18 14 11 6 3 1 -0 5 19
3 7 10 14 8 11 12 4 17 -2 8 14 19 -3 4 11 13 24 16 18 20 18 15 12 9 9 11 18 8 5 -5 16 4 12 16 16 18 27 27 22 21 21 24 29
1 6 9 15 9 12 13 10 9 9 11 22 8 14 10 -5 31 20 12 18 18 22 18 15 16 11 22 17 8 11 8 9 15 15 17 15 17 18 15 17 19 23 22 21
5 8 10 18 9 13 8 10 8 14 17 21 -5 18 20 -3 27 21 12 8 10 20 19 14 22 18 12 8 11 19 20 17 19 15 15 17 16 14 12 13 14 14 14 12
10 13 14 22 10 13 9 5 10 20 10 15 -14 20 18 5 17 18 6 19 2 3 6 18 15 16 9 16 20 21 19 18 15 13 12 10 9 9 9 9 9 8 8 9
12 14 13 14 13 13 12 10 6 12 5 -3 -5 10 14 15 18 13 23 10 13 7 14 5 4 6 5 4 7 12 15 14 13 13 11 11 9 8 7 6 7 7 8 8
12 11 13 23 16 20 17 4 20 15 15 -12 -0 9 15 24 15 16 13 9 10 8 1 15 8 1 1 5 10 7 3 2 3 6 9 11 11 9 9 8 7 7 7 7
10 15 21 21 20 11 8 4 4 17 -6 3 4 9 15 21 24 15 7 12 10 11 6 14 7 7 11 7 1 2 3 6 3 3 3 3 2 2 5 8 10 10 10 9
8 30 25 22 12 10 8 2 -6 6 5 6 6 8 22 12 15 15 15 12 8 12 14 11 -2 5 5 2 0 -0 9 11 12 12 11 9 8 8 8 6 4 2 2 4
14 30 13 14 10 3 -2 11 10 7 6 6 6 9 24 17 32 8 13 9 17 11 11 4 -0 -2 1 2 6 20 17 13 11 11 12 14 16 15 14 13 10 10 10 10
20 27 15 5 -8 8 11 9 8 6 6 5 7 20 33 28 14 12 12 16 12 8 2 -4 -2 3 13 23 16 6 8 8 10 12 13 12 10 9 11 13 16 15 13 13
31 27 -15 3 12 13 10 8 7 7 7 6 10 29 13 13 11 11 11 11 6 -12 -5 3 11 18 15 8 8 6 10 12 16 17 18 20 21 20 17 13 9 10 20 12
12 -15 10 6 16 12 12 10 7 5 7 8 20 24 8 5 24 9 11 -8 -9 8 12 12 9 12 17 14 10 10 12 14 14 17 19 20 20 23 22 25 20 19 13 14
Height
3054 3045 3034 3022 3010 3000 2993 2989 2987 2983 2979 2977 2972 2970 2967 2965 2962 2961 2957 2955 2954 2954 2952 2949 2949 2948 2948 2947 2946 2945 2946 2945 2945 2945 2943 2944 2946 2948 2949 2949 2952 2952 2952 2958
3050 3039 3027 3016 3006 3000 2994 2989 2986 2983 2979 2977 2974 2972 2970 2967 2962 2959 2957 2955 2954 2952 2951 2952 2949 2948 2948 2947 2946 2944 2945 2946 2945 2943 2944 2944 2945 2944 2944 2946 2948 2950 2954 2958
3045 3034 3023 3014 3008 3001 2995 2989 2984 2981 2980 2979 2976 2971 2968 2965 2963 2959 2956 2953 2952 2950 2949 2948 2948 2948 2947 2946 2946 2945 2945 2946 2948 2949 2948 2948 2946 2943 2945 2948 2949 2952 2954 2956
3043 3032 3022 3015 3009 3003 2997 2991 2989 2984 2980 2977 2975 2972 2967 2965 2962 2958 2956 2952 2951 2948 2946 2945 2945 2946 2946 2945 2944 2944 2945 2945 2946 2946 2946 2946 2945 2946 2948 2949 2950 2954 2956 2957
3041 3031 3022 3015 3009 3004 3000 2994 2990 2985 2981 2978 2973 2969 2967 2965 2961 2959 2955 2951 2947 2944 2942 2941 2941 2943 2944 2943 2943 2943 2943 2943 2942 2943 2943 2942 2942 2944 2946 2948 2950 2954 2957 2959
3039 3031 3023 3016 3009 3003 2999 2995 2991 2986 2982 2976 2973 2971 2969 2965 2961 2957 2955 2950 2944 2940 2940 2940 2941 2941 2940 2941 2940 2940 2941 2941 2941 2941 2941 2941 2941 2940 2942 2945 2948 2951 2953 2956
3039 3031 3024 3017 3010 3004 2999 2995 2991 2986 2983 2978 2975 2972 2968 2964 2960 2957 2953 2951 2947 2946 2943 2941 2939 2938 2937 2937 2937 2937 2938 2939 2940 2941 2941 2943 2940 2939 2939 2942 2944 2947 2950 2952
3038 3031 3024 3018 3011 3006 3001 2996 2991 2986 2982 2978 2975 2971 2966 2963 2960 2957 2954 2951 2948 2945 2943 2940 2939 2939 2939 2937 2936 2935 2935 2937 2938 2940 2940 2941 2940 2939 2941 2941 2943 2945 2947 2950
3037 3030 3023 3017 3011 3005 3000 2996 2991 2987 2983 2980 2975 2971 2966 2962 2958 2957 2954 2952 2949 2947 2944 2942 2941 2941 2940 2938 2937 2935 2934 2935 2938 2939 2940 2940 2939 2939 2940 2942 2944 2946 2948 2951
3035 3029 3023 3017 3011 3006 3001 2996 2991 2986 2982 2979 2976 2971 2968 2964 2961 2958 2955 2953 2950 2948 2947 2945 2944 2943 2943 2941 2938 2936 2936 2936 2938 2939 2940 2940 2940 2940 2941 2944 2951 2947 2949 2952
3033 3027 3022 3016 3011 3005 3001 2996 2990 2986 2982 2979 2976 2972 2969 2966 2962 2959 2957 2955 2952 2950 2948 2947 2946 2945 2944 2943 2942 2940 2940 2939 2940 2941 2941 2943 2941 2942 2944 2946 2946 2948 2950 2952
3031 3026 3020 3015 3010 3005 2999 2994 2989 2985 2982 2980 2976 2973 2970 2966 2962 2959 2956 2955 2953 2951 2950 2950 2948 2947 2946 2945 2943 2943 2943 2943 2942 2943 2943 2943 2943 2944 2945 2945 2947 2949 2950 2951
3029 3024 3018 3014 3009 3004 2999 2993 2989 2985 2981 2979 2976 2973 2970 2967 2962 2960 2958 2955 2952 2951 2951 2950 2950 2949 2947 2946 2945 2944 2943 2942 2942 2943 2943 2943 2943 2943 2944 2944 2945 2946 2947 2948
3027 3022 3018 3013 3008 3003 2998 2993 2988 2985 2981 2979 2977 2973 2971 2967 2963 2960 2957 2954 2952 2951 2950 2950 2949 2948 2948 2947 2946 2945 2944 2942 2941 2941 2941 2941 2940 2940 2940 2941 2941 2942 2942 2943
3026 3022 3017 3012 3008 3003 2998 2993 2989 2985 2984 2980 2977 2974 2971 2967 2963 2958 2955 2952 2951 2950 2949 2948 2948 2947 2947 2946 2945 2944 2943 2941 2941 2940 2938 2937 2937 2936 2936 2937 2937 2937 2937 2936
3025 3021 3017 3011 3007 3002 2998 2994 2991 2987 2984 2981 2978 2975 2971 2967 2962 2956 2953 2950 2949 2948 2947 2947 2947 2947 2947 2946 2944 2943 2942 2940 2938 2937 2935 2933 2932 2931 2931 2932 2932 2932 2930 2930
3025 3020 3016 3011 3006 3003 2999 2996 2992 2988 2984 2981 2978 2975 2971 2967 2962 2957 2954 2951 2949 2948 2947 2947 2946 2946 2946 2945 2944 2942 2941 2939 2937 2935 2933 2932 2931 2930 2930 2930 2930 2930 2929 2929
3023 3019 3015 3010 3006 3002 2999 2995 2991 2988 2985 2982 2979 2976 2970 2966 2961 2958 2955 2953 2951 2949 2948 2947 2946 2946 2945 2945 2943 2941 2939 2938 2936 2935 2933 2932 2932 2931 2931 2932 2931 2931 2932 2932
3020 3015 3011 3008 3004 3001 2998 2994 2991 2988 2989 2983 2980 2975 2970 2966 2962 2959 2957 2955 2954 2953 2951 2949 2949 2947 2947 2945 2943 2940 2939 2938 2937 2936 2935 2934 2934 2933 2933 2933 2933 2934 2934 2934
3017 3013 3008 3003 3002 2999 2997 2993 2991 2987 2986 2983 2979 2974 2969 2967 2962 2959 2958 2956 2955 2954 2954 2952 2950 2949 2948 2947 2944 2942 2941 2939 2938 2937 2937 2936 2935 2934 2934 2934 2934 2935 2935 2935
3015 3010 3006 3002 2999 2997 2995 2993 2991 2988 2986 2983 2979 2974 2969 2966 2963 2960 2959 2957 2956 2955 2956 2953 2951 2950 2949 2948 2946 2944 2943 2941 2940 2939 2937 2936 2935 2934 2934 2933 2933 2933 2933 2934
3013 3008 3003 3000 2998 2995 2995 2993 2991 2988 2986 2983 2979 2974 2969 2965 2962 2960 2959 2957 2956 2955 2954 2953 2951 2950 2948 2947 2946 2944 2942 2941 2939 2938 2936 2935 2934 2933 2932 2931 2930 2930 2929 2929
3010 3005 3000 2999 2999 2996 2993 2992 2990 2988 2985 2981 2977 2973 2968 2964 2962 2960 2958 2956 2955 2955 2953 2951 2950 2949 2947 2945 2943 2941 2939 2936 2934 2932 2931 2929 2928 2927 2926 2925 2925 2924 2924 2923
3007 3003 2999 2998 2995 2994 2991 2989 2987 2985 2981 2978 2975 2971 2968 2963 2961 2959 2957 2956 2954 2952 2951 2949 2948 2946 2944 2942 2939 2936 2934 2931 2929 2926 2924 2922 2920 2919 2918 2917 2916 2916 2916 2915
3005 3003 2997 2994 2993 2991 2988 2986 2984 2982 2979 2976 2972 2968 2965 2961 2960 2958 2956 2955 2952 2950 2949 2947 2945 2943 2940 2937 2934 2932 2929 2926 2923 2920 2917 2914 2912 2911 2910 2908 2908 2907 2907 2907
3001 2996 2993 2991 2989 2987 2985 2982 2980 2978 2976 2973 2970 2966 2963 2961 2959 2957 2955 2953 2950 2949 2947 2944 2941 2938 2935 2933 2930 2927 2924 2920 2916 2912 2909 2906 2903 2901 2901 2899 2898 2898 2898 2899
2995 2992 2989 2986 2984 2982 2980 2978 2976 2974 2972 2970 2968 2966 2964 2961 2956 2954 2951 2949 2948 2945 2943 2940 2936 2933 2930 2928 2925 2921 2918 2914 2909 2906 2902 2899 2896 2894 2892 2891 2890 2890 2890 2891